Wind_Speed
41 41 42 41 40 41 41 43 45 44 42 50 46 43 41 37 35 34 32 30 30 31 31 29 26 23 22 22 21 18 18 18 16 14 12 13 14 16 14 22 26 24 24
45 44 45 45 44 42 44 47 47 45 45 43 47 50 44 44 39 38 36 34 33 33 34 33 31 28 25 24 24 23 20 20 19 16 14 13 16 19 18 19 26 25 26
47 49 47 47 48 47 47 49 51 41 46 46 49 53 53 48 43 39 42 40 37 34 38 39 34 34 30 28 28 27 24 22 22 20 17 15 15 16 22 19 22 30 26
56 52 53 54 55 54 49 52 45 52 52 49 46 45 50 42 48 47 46 44 46 42 39 40 41 38 35 33 32 30 28 26 24 23 20 18 16 16 17 16 21 27 31
59 60 59 60 62 61 59 56 55 56 53 48 45 36 41 46 32 37 44 49 47 46 49 43 46 43 41 37 36 33 30 30 27 25 23 22 20 19 19 22 25 28 32
64 65 66 65 66 67 66 65 61 59 54 54 52 44 43 38 28 37 41 45 45 48 50 49 47 46 44 43 40 37 34 32 31 27 25 25 24 22 21 22 26 30 28
69 71 71 71 71 73 71 70 65 64 59 54 57 51 44 48 46 40 43 45 43 49 52 49 50 47 46 42 42 39 38 34 33 31 26 25 25 25 23 23 26 30 35
63 67 70 73 74 73 75 73 71 66 65 58 58 55 52 48 51 47 47 50 51 50 52 52 54 52 49 51 46 45 42 38 34 33 33 29 27 26 24 27 27 28 33
57 64 66 68 70 71 71 71 70 67 64 60 59 58 53 54 51 49 46 49 47 50 49 51 52 53 47 50 42 47 50 41 39 36 34 31 29 29 26 26 27 25 27
59 57 64 69 67 66 67 67 67 67 63 59 60 63 58 55 54 53 47 48 43 36 35 40 42 45 44 51 45 46 50 44 42 40 36 36 31 32 30 27 27 27 25
55 61 60 65 67 67 67 64 64 65 68 63 59 63 64 58 57 57 59 53 50 46 38 35 38 39 43 45 50 49 45 47 41 42 39 38 35 31 32 29 28 29 29
53 56 55 54 58 63 64 61 64 57 61 64 62 61 62 64 62 59 60 59 56 49 47 39 39 46 50 53 51 51 47 47 46 44 40 39 38 35 34 34 31 30 32
45 48 50 49 50 53 51 50 49 49 50 47 45 52 63 60 60 61 58 53 54 51 50 45 44 43 40 41 47 46 45 48 48 43 41 39 40 38 38 36 34 33 33
41 38 40 47 49 45 50 47 41 47 51 50 50 49 50 59 61 61 59 58 54 51 52 49 45 41 41 35 33 32 41 44 45 51 43 40 40 40 40 40 38 37 35
36 39 43 45 42 40 43 44 44 45 47 51 51 51 49 51 56 62 62 60 57 57 55 51 47 43 43 44 44 41 30 34 41 44 48 46 41 41 41 41 41 40 39
34 33 34 42 42 42 47 46 47 48 48 49 52 53 51 50 53 57 59 61 60 58 56 50 48 45 45 45 44 42 39 42 39 46 42 48 43 40 39 40 42 41 42
37 36 34 38 45 47 47 52 52 53 54 55 51 52 61 59 56 57 58 57 58 57 59 50 49 47 47 46 46 46 46 46 42 45 49 47 44 43 42 45 47 45 45
41 42 43 43 45 48 52 56 55 49 49 50 49 47 48 54 60 59 60 58 55 53 56 54 48 50 50 49 50 50 48 49 50 47 52 53 51 47 47 48 50 49 48
41 42 46 47 47 47 46 45 46 49 51 52 52 52 51 50 52 59 62 58 56 54 54 56 49 50 50 51 50 50 50 51 49 53 53 56 56 55 54 54 55 52 49
31 34 37 40 43 45 48 51 50 52 54 54 57 58 57 53 50 54 58 61 57 55 54 54 53 50 51 50 51 50 52 52 52 52 53 55 55 55 56 57 57 53 53
33 36 38 39 42 43 40 39 43 44 43 45 46 49 59 56 54 52 54 59 59 55 53 53 53 53 51 53 52 52 51 50 51 51 52 53 56 58 57 56 54 54 56
24 26 28 32 34 32 33 33 34 35 38 41 43 42 41 56 57 53 51 51 55 55 55 55 56 57 55 55 55 54 54 55 54 53 55 55 58 59 60 62 61 58 56
23 24 22 21 20 17 23 27 29 28 27 27 31 38 35 37 52 53 49 48 50 50 52 54 56 57 57 56 55 56 58 59 58 59 61 61 60 59 60 60 59 57 56
19 22 17 13 8 6 11 12 10 10 14 17 18 20 20 25 35 51 51 49 50 50 51 52 54 55 56 58 58 59 61 63 69 68 67 64 62 61 64 63 61 59 56
6 8 9 6 7 6 10 13 13 19 17 12 6 27 29 20 19 29 42 51 54 54 55 56 56 55 57 60 64 65 64 59 62 63 65 67 70 67 66 66 63 60 60
7 11 15 15 15 18 22 21 20 10 14 18 19 12 3 18 30 31 32 31 35 43 50 50 52 56 58 60 60 61 63 67 69 70 64 69 71 70 70 67 65 61 61
Wind_Direction
274 273 272 270 270 274 276 276 278 284 285 270 261 264 265 262 263 264 263 265 265 265 262 258 255 257 262 266 267 262 261 259 259 264 267 258 258 254 249 232 225 233 234
273 272 273 273 272 271 274 273 280 271 284 285 278 261 259 262 258 260 262 261 262 263 264 261 256 253 253 258 262 263 259 255 255 258 260 258 257 252 247 239 225 228 238
271 272 270 270 273 271 273 274 270 274 282 276 279 270 257 256 259 259 258 259 256 263 265 264 259 253 251 252 252 255 259 255 248 248 255 254 251 244 250 235 231 228 231
271 270 269 270 270 270 270 275 268 279 280 285 280 273 276 271 267 259 260 261 262 257 254 264 264 254 255 252 249 249 253 255 251 247 249 253 246 245 251 245 226 226 229
269 271 269 269 270 271 266 269 270 272 274 275 269 265 276 272 271 276 274 266 265 267 264 248 260 260 254 250 247 248 248 251 253 250 249 250 249 247 250 242 237 238 233
265 266 268 268 268 269 267 267 268 268 270 271 271 262 276 271 254 276 272 272 280 276 275 263 248 259 254 250 247 245 246 248 251 253 248 251 253 251 254 248 243 239 238
270 267 266 265 265 266 267 267 265 265 266 264 268 266 271 273 245 271 267 272 270 273 277 275 254 248 254 252 255 249 249 246 249 251 253 252 253 256 260 255 251 244 241
268 268 266 263 262 262 263 265 265 264 262 258 262 263 264 262 264 264 267 267 270 272 270 268 267 258 261 252 252 244 248 250 246 247 252 252 250 252 256 259 257 254 247
256 255 256 256 256 257 258 262 265 266 264 260 258 259 258 263 260 261 263 267 271 272 267 262 261 256 262 258 263 254 240 246 247 244 248 247 247 249 251 252 254 250 251
256 252 253 252 252 253 255 260 263 261 261 262 258 258 255 256 259 261 260 266 269 271 266 258 249 255 252 253 261 267 246 234 246 246 244 245 247 251 250 251 252 255 257
265 260 257 253 255 256 258 261 263 265 263 260 258 255 256 252 254 258 261 261 261 254 261 255 252 251 251 253 255 261 260 242 242 245 245 244 245 249 251 252 253 255 256
261 259 261 255 260 257 257 257 260 266 267 265 259 255 254 253 252 252 255 258 260 261 251 259 257 254 257 257 251 256 251 246 233 243 239 246 246 244 250 254 258 260 258
269 268 261 253 259 254 255 256 256 259 252 247 247 256 253 252 251 251 249 252 253 253 246 254 253 249 252 254 251 247 243 240 247 230 238 239 246 247 247 250 254 259 264
265 262 259 256 258 263 257 248 251 254 250 246 241 237 245 251 249 249 246 247 249 250 253 258 257 257 256 244 251 242 234 237 246 231 236 237 241 246 248 252 254 257 261
264 265 261 257 262 255 249 244 250 252 254 252 247 238 238 241 244 245 246 246 246 249 250 251 251 248 243 240 238 243 239 237 239 236 230 240 236 243 248 252 254 255 259
262 262 263 250 252 255 261 260 263 261 259 253 252 246 240 243 244 244 243 242 244 244 246 244 244 240 240 240 241 239 234 241 239 232 232 238 238 242 250 254 256 257 258
275 271 266 257 255 259 260 258 261 268 267 262 260 255 250 250 242 241 243 242 241 241 242 237 237 239 237 239 241 241 242 243 240 235 231 232 239 243 247 253 257 259 262
272 271 272 268 263 266 266 264 266 265 259 256 254 254 254 249 245 240 237 240 241 243 244 242 236 236 236 235 236 239 241 241 242 235 238 236 239 240 246 253 258 259 259
280 277 275 273 272 274 272 271 268 266 263 258 255 253 251 250 246 242 239 233 237 239 242 243 236 234 235 235 236 236 238 242 242 244 242 245 248 251 252 254 256 258 258
280 281 278 276 273 274 274 273 271 269 267 263 257 251 248 246 248 244 241 238 233 234 237 240 240 235 235 237 239 239 240 241 242 242 245 248 250 251 250 251 254 256 255
279 280 281 280 278 278 275 275 275 270 266 265 264 261 242 240 239 241 238 238 238 234 232 235 239 239 236 238 240 244 244 243 243 243 241 243 246 248 248 248 252 253 254
289 295 295 294 296 294 286 285 281 273 267 261 255 253 256 239 233 236 240 238 239 239 236 235 237 239 239 238 239 240 243 243 244 246 243 243 244 246 248 251 253 255 252
288 285 277 280 288 304 306 306 298 285 274 253 251 247 245 248 233 232 236 239 239 239 239 239 240 241 243 245 246 247 247 249 248 245 245 244 245 245 246 248 249 248 248
265 260 255 264 301 344 10 21 17 318 297 253 238 244 242 246 242 234 232 235 238 240 242 243 244 244 245 245 247 247 250 250 252 246 246 245 245 245 248 249 249 249 250
258 293 292 254 241 41 51 41 42 65 59 71 182 236 227 213 230 236 235 234 236 238 241 244 245 247 247 248 250 250 249 239 251 244 244 244 243 244 243 246 247 249 253
342 336 335 345 358 353 359 9 21 37 61 77 80 79 131 215 211 216 224 232 238 241 243 245 247 248 248 248 248 245 238 240 245 249 253 242 241 241 241 243 247 248 252
Height
5798 5797 5797 5796 5797 5797 5797 5794 5793 5792 5793 5793 5795 5797 5799 5799 5800 5801 5800 5803 5804 5804 5805 5806 5807 5807 5808 5808 5808 5807 5807 5807 5807 5807 5806 5807 5806 5806 5805 5808 5809 5811 5814
5790 5789 5787 5786 5787 5788 5786 5785 5783 5783 5784 5784 5787 5787 5790 5790 5790 5792 5792 5794 5796 5798 5798 5799 5801 5802 5802 5802 5803 5803 5803 5803 5802 5802 5802 5801 5802 5802 5802 5803 5805 5807 5809
5779 5780 5778 5778 5777 5776 5778 5773 5772 5772 5775 5777 5778 5775 5776 5779 5780 5782 5783 5783 5787 5790 5791 5791 5794 5795 5796 5797 5797 5798 5798 5799 5798 5797 5797 5797 5797 5797 5798 5800 5802 5803 5805
5768 5768 5767 5766 5766 5768 5768 5764 5754 5763 5766 5762 5764 5766 5768 5770 5770 5771 5772 5773 5774 5778 5783 5784 5785 5788 5790 5790 5791 5792 5792 5792 5793 5793 5792 5792 5792 5793 5793 5794 5796 5798 5801
5756 5754 5753 5753 5753 5754 5755 5756 5755 5756 5757 5756 5756 5756 5759 5759 5763 5762 5764 5763 5763 5767 5770 5774 5775 5778 5782 5783 5784 5785 5786 5786 5787 5788 5787 5787 5788 5788 5789 5790 5792 5793 5795
5743 5742 5739 5738 5738 5737 5738 5741 5743 5743 5746 5746 5745 5745 5749 5750 5750 5754 5755 5756 5755 5756 5759 5762 5765 5768 5772 5774 5776 5778 5780 5781 5781 5782 5782 5783 5783 5783 5784 5785 5785 5787 5788
5725 5726 5725 5723 5724 5724 5722 5724 5726 5726 5732 5735 5733 5738 5742 5740 5715 5741 5748 5748 5747 5747 5748 5750 5753 5757 5761 5766 5769 5771 5773 5774 5775 5776 5777 5777 5778 5778 5779 5779 5780 5780 5781
5706 5707 5708 5708 5708 5709 5708 5707 5711 5713 5715 5721 5722 5725 5731 5735 5731 5738 5737 5737 5738 5737 5737 5736 5742 5746 5750 5754 5759 5762 5764 5767 5768 5769 5770 5770 5771 5772 5773 5774 5775 5775 5775
5689 5690 5689 5690 5691 5693 5693 5693 5693 5695 5698 5706 5707 5709 5715 5720 5723 5723 5724 5725 5728 5726 5725 5724 5730 5734 5740 5744 5748 5750 5755 5756 5759 5760 5762 5763 5764 5766 5766 5767 5767 5768 5770
5671 5670 5672 5674 5675 5676 5678 5679 5679 5682 5684 5687 5692 5695 5700 5704 5709 5709 5713 5714 5716 5716 5714 5716 5719 5722 5727 5732 5736 5738 5744 5746 5749 5752 5754 5755 5756 5759 5760 5760 5761 5762 5763
5654 5655 5656 5657 5658 5660 5663 5663 5664 5666 5669 5672 5675 5680 5682 5688 5692 5698 5700 5704 5705 5708 5707 5707 5709 5712 5715 5720 5725 5726 5731 5736 5738 5743 5745 5747 5749 5751 5753 5754 5755 5755 5756
5638 5637 5638 5641 5644 5646 5647 5648 5649 5651 5653 5655 5659 5664 5667 5670 5676 5681 5685 5689 5692 5694 5696 5697 5700 5702 5705 5707 5711 5715 5718 5722 5727 5732 5734 5738 5739 5741 5744 5745 5747 5747 5749
5625 5625 5625 5627 5629 5629 5631 5632 5634 5636 5637 5639 5642 5647 5650 5655 5659 5664 5670 5674 5677 5681 5681 5685 5690 5690 5693 5695 5698 5702 5706 5710 5716 5721 5724 5726 5730 5731 5733 5736 5737 5739 5740
5614 5613 5613 5614 5616 5616 5618 5619 5621 5623 5624 5625 5627 5629 5634 5638 5642 5648 5653 5659 5663 5666 5669 5672 5677 5678 5683 5686 5688 5689 5693 5699 5705 5709 5714 5715 5718 5721 5723 5726 5727 5729 5730
5603 5603 5602 5603 5604 5604 5604 5605 5607 5609 5610 5612 5613 5615 5619 5622 5625 5631 5636 5641 5645 5651 5657 5660 5666 5669 5670 5674 5677 5681 5684 5689 5693 5697 5702 5706 5707 5709 5712 5715 5717 5719 5721
5593 5592 5591 5592 5593 5594 5594 5594 5594 5596 5596 5598 5600 5602 5603 5606 5611 5615 5619 5624 5629 5635 5641 5646 5652 5656 5657 5661 5666 5668 5671 5677 5681 5684 5689 5695 5697 5699 5702 5704 5706 5709 5709
5582 5581 5580 5581 5582 5582 5581 5581 5580 5580 5580 5581 5582 5584 5586 5590 5595 5599 5603 5609 5615 5619 5625 5633 5637 5643 5647 5650 5654 5659 5663 5666 5671 5674 5678 5680 5684 5688 5690 5692 5693 5696 5698
5572 5571 5570 5570 5569 5568 5568 5566 5565 5564 5565 5566 5567 5568 5569 5570 5577 5582 5586 5593 5600 5605 5610 5618 5624 5629 5634 5637 5640 5646 5650 5654 5658 5663 5667 5669 5672 5674 5677 5679 5682 5685 5686
5561 5559 5558 5557 5556 5554 5552 5550 5549 5549 5549 5550 5551 5552 5555 5556 5559 5565 5571 5576 5582 5589 5596 5601 5610 5613 5618 5623 5627 5630 5635 5640 5644 5649 5652 5656 5659 5662 5666 5668 5670 5673 5676
5551 5549 5547 5545 5543 5541 5538 5535 5533 5530 5528 5528 5531 5534 5537 5541 5545 5549 5556 5562 5567 5574 5581 5587 5594 5599 5602 5608 5611 5617 5619 5625 5630 5634 5638 5642 5645 5648 5651 5654 5657 5660 5663
5543 5541 5538 5535 5531 5528 5524 5520 5517 5513 5513 5512 5512 5513 5517 5523 5529 5534 5539 5545 5553 5559 5565 5572 5579 5583 5589 5592 5598 5602 5606 5610 5615 5620 5623 5626 5630 5633 5637 5639 5643 5646 5649
5536 5532 5529 5525 5521 5516 5512 5508 5503 5499 5497 5496 5496 5498 5500 5505 5513 5519 5525 5534 5540 5546 5552 5557 5562 5565 5572 5578 5583 5588 5592 5594 5600 5607 5607 5611 5615 5619 5623 5626 5630 5633 5635
5529 5528 5525 5521 5516 5510 5502 5495 5489 5485 5482 5483 5484 5485 5489 5493 5499 5506 5513 5520 5526 5533 5538 5544 5547 5552 5557 5563 5571 5575 5577 5580 5586 5589 5589 5594 5598 5603 5606 5610 5613 5617 5620
5527 5525 5522 5518 5513 5506 5500 5495 5487 5480 5475 5473 5476 5479 5482 5485 5488 5495 5502 5508 5513 5519 5525 5530 5533 5538 5542 5548 5553 5558 5560 5564 5564 5568 5572 5577 5582 5588 5591 5594 5598 5602 5605
5523 5521 5517 5513 5510 5505 5499 5495 5491 5484 5478 5471 5470 5473 5476 5479 5483 5486 5491 5496 5502 5507 5511 5515 5518 5522 5526 5531 5535 5539 5542 5546 5546 5545 5554 5559 5566 5569 5572 5577 5581 5585 5589
5519 5517 5514 5509 5505 5501 5498 5493 5490 5488 5483 5477 5472 5471 5471 5473 5476 5480 5483 5487 5491 5494 5497 5500 5503 5505 5508 5512 5516 5519 5523 5527 5529 5532 5534 5538 5547 5551 5554 5560 5564 5569 5572